Location: Kimberly
(42.5380°N, 114.3640°W)
Time: 01:19:14
(UTC-07:00)

ISS - Visible Passes

Search period start: 14 December 2017 00:00
Search period end: 24 December 2017 00:00
Orbit: 402 x 406 km, 51.6° (Epoch: 14 December)

Date Brightness Start Highest point End Pass type
(mag) Time Alt. Az. Time Alt. Az. Time Alt. Az.
14 Dec -3.7 18:30:37 10° WNW 18:33:55 73° SW 18:36:03 20° SE visible
15 Dec -3.8 17:38:22 10° NW 17:41:38 62° NNE 17:44:52 10° ESE visible
15 Dec -0.9 19:15:39 10° W 19:17:48 16° SW 19:19:54 10° S visible
16 Dec -1.8 18:22:46 10° WNW 18:25:42 30° SW 18:28:36 10° SSE visible
18 Dec -0.5 18:15:39 10° W 18:17:17 13° SW 18:18:56 10° SSW visible
23 Dec 0.3 07:28:12 10° SE 07:28:35 10° SE 07:28:58 10° ESE visible
